カタログに戻る

MOLNIYA 1-86

運用中通信HEO
NORAD 22671·PAYLOAD·🇷🇺 Russia

打ち上げ May 26, 1993 から Plesetsk Cosmodrome

Loading…

次のパス (今後24時間)

TLE

最新Source: Space-Track

元期: Sep 14, 2026, 14:57 UTC

1 22671U 93035A   26257.62323997  .00001107  00000-0  37413-3 0  9991
2 22671  62.9320  41.6387 4944351  36.2411 348.8378  5.65992750439698

AllMySatでMOLNIYA 1-86をリアルタイム追跡

Download on the App Store